This demonstration page uses our WeatherBlox Daily Observations layout. Learn more.

Left ArrowRight Arrow

34.02893, -84.19858

Hourly Observations for August 2, 2022

Temp ( °F °C ) Dew Point ( °F °C ) Humidity (%) Winds ( mph kmh ) Pressure ( in mb ) Visibility ( mi km ) Precip ( " mm )
12:53 am 00:53 Clear 73 22.8 70 21.1 90 90 Calm 30.06 1018 10 16 0.00 0.00
1:53 am 01:53 Clear 72 22.2 70 21.1 94 94 NW 3 6 30.05 1018 10 16 0.00 0.00
2:53 am 02:53 Clear 72 22.2 70 21.1 94 94 WNW 3 6 30.05 1018 10 16 0.00 0.00
3:53 am 03:53 Clear 71 21.7 70 21.1 96 96 SW 3 6 30.04 1017 10 16 0.00 0.00
4:53 am 04:53 Clear 72 22.2 71 21.7 97 97 WSW 5 7 30.05 1018 10 16 0.00 0.00
5:48 am 05:48 Mostly Cloudy 73 23 72 22 94 94 WSW 6 9 30.07 1018 10 16 0.00 0.00
5:53 am 05:53 Mostly Cloudy 73 22.8 71 21.7 94 94 W 3 6 30.06 1018 10 16 0.00 0.00
6:33 am 06:33 Partly Cloudy 73 22.8 71 21.7 94 94 SW 6 9 30.07 1018 10 16 0.00 0.00
6:53 am 06:53 Partly Cloudy 73 22.8 71 21.7 94 94 WSW 6 9 30.07 1018 10 16 0.00 0.00
7:53 am 07:53 Cloudy 73 22.8 71 21.7 94 94 WNW 5 7 30.09 1019 10 16 0.00 0.00
8:53 am 08:53 Cloudy 75 23.9 72 22.2 90 90 NNW 8 13 30.11 1020 10 16 0.00 0.00
9:03 am 09:03 Mostly Cloudy 76 24.4 72 22.2 88 88 NNW 9 15 30.11 1020 10 16 0.00 0.00
9:53 am 09:53 Mostly Cloudy 79 26.1 73 22.8 82 82 NW 6 9 30.09 1019 10 16 0.00 0.00
10:34 am 10:34 Partly Cloudy 81 27.2 73 22.8 77 77 WNW 7 11 30.09 1019 10 16 0.00 0.00
10:53 am 10:53 Mostly Sunny 81 27.2 73 22.8 77 77 W 7 11 30.08 1019 10 16 0.00 0.00
11:53 am 11:53 Mostly Sunny 83 28.3 72 22.2 70 70 NW 6 9 30.06 1018 10 16 0.00 0.00
12:53 pm 12:53 Sunny 84 28.9 73 22.8 70 70 W 7 11 30.05 1018 10 16 0.00 0.00
1:53 pm 13:53 Partly Cloudy 87 30.6 74 23.3 65 65 VRB 6 9 30.04 1017 10 16 0.00 0.00
2:53 pm 14:53 Mostly Sunny 88 31.1 74 23.3 63 63 W 7 11 30.01 1016 10 16 0.00 0.00
3:53 pm 15:53 Partly Cloudy 91 32.8 74 23.3 57 57 NNW 7 11 29.99 1016 10 16 0.00 0.00
4:53 pm 16:53 Mostly Sunny 90 32.2 73 22.8 58 58 WSW 7 11 29.98 1015 10 16 0.00 0.00
5:53 pm 17:53 Partly Cloudy 90 32.2 72 22.2 56 56 VRB 6 9 29.97 1015 10 16 0.00 0.00
6:53 pm 18:53 Mostly Cloudy 89 31.7 72 22.2 57 57 WNW 5 7 29.96 1015 10 16 0.00 0.00
7:48 pm 19:48 Sunny with Nearby Thunderstorms 88 31 73 23 62 62 NW 5 7 29.97 1015 10 16 0.00 0.00
7:53 pm 19:53 Sunny with Nearby Thunderstorms 87 30.6 72 22.2 61 61 NW 3 6 29.97 1015 10 16 0.00 0.00
8:13 pm 20:13 Sunny 86 30 73 22.8 65 65 W 5 7 29.97 1015 10 16 0.00 0.00
8:53 pm 20:53 Clear 84 28.9 72 22.2 67 67 WNW 5 7 29.98 1015 10 16 0.00 0.00
9:53 pm 21:53 Partly Cloudy 81 27.2 71 21.7 72 72 WSW 5 7 29.99 1016 10 16 0.00 0.00
10:53 pm 22:53 Clear 80 26.7 74 23.3 82 82 SW 8 13 30.01 1016 10 16 0.00 0.00
11:53 pm 23:53 Partly Cloudy 80 26.7 73 22.8 79 79 WSW 9 15 30.01 1016 10 16 0.00 0.00

Powered by AerisWeather